QPF
0.00 0.00 0.00 0.00 0.00 0.00 0.00 0.00 0.00 0.00 0.00 0.00 0.00 0.00 0.00 0.00 0.00 0.00 0.00 0.00 0.00 0.00 0.00 0.00 0.00 0.00 0.00 0.00 0.00 0.00 0.00 0.00 0.00 0.00 0.00 0.00 0.00 0.00 0.00 0.00 0.00 0.00 0.00
0.00 0.00 0.00 0.00 0.00 0.00 0.00 0.00 0.00 0.00 0.00 0.00 0.00 0.00 0.00 0.00 0.00 0.00 0.00 0.00 0.01 0.01 0.00 0.00 0.00 0.00 0.00 0.00 0.00 0.00 0.00 0.00 0.00 0.00 0.00 0.00 0.00 0.00 0.00 0.00 0.00 0.00 0.00
0.00 0.00 0.00 0.00 0.00 0.00 0.00 0.00 0.00 0.00 0.00 0.00 0.00 0.00 0.00 0.00 0.00 0.00 0.00 0.00 0.01 0.00 0.00 0.00 0.00 0.00 0.00 0.00 0.00 0.00 0.00 0.00 0.00 0.00 0.00 0.00 0.00 0.00 0.00 0.00 0.00 0.00 0.00
0.00 0.00 0.00 0.00 0.00 0.00 0.00 0.00 0.00 0.00 0.00 0.00 0.00 0.00 0.00 0.00 0.00 0.00 0.00 0.00 0.00 0.00 0.00 0.00 0.00 0.00 0.00 0.00 0.00 0.00 0.00 0.00 0.00 0.00 0.00 0.00 0.00 0.00 0.00 0.00 0.00 0.00 0.00
0.00 0.00 0.00 0.00 0.00 0.00 0.00 0.00 0.00 0.00 0.00 0.00 0.00 0.00 0.00 0.00 0.00 0.00 0.00 0.00 0.00 0.00 0.00 0.00 0.00 0.00 0.00 0.00 0.00 0.00 0.00 0.00 0.00 0.00 0.00 0.00 0.00 0.00 0.00 0.00 0.00 0.00 0.00
0.00 0.00 0.00 0.00 0.00 0.00 0.00 0.00 0.00 0.00 0.00 0.00 0.00 0.00 0.00 0.00 0.00 0.00 0.00 0.00 0.00 0.00 0.00 0.00 0.00 0.00 0.00 0.00 0.00 0.00 0.00 0.00 0.00 0.00 0.00 0.00 0.00 0.00 0.00 0.00 0.00 0.00 0.00
0.00 0.00 0.00 0.00 0.00 0.00 0.00 0.00 0.00 0.00 0.00 0.00 0.00 0.00 0.00 0.00 0.00 0.00 0.00 0.00 0.00 0.00 0.00 0.00 0.00 0.00 0.00 0.00 0.00 0.00 0.00 0.00 0.00 0.00 0.00 0.00 0.00 0.00 0.00 0.00 0.00 0.00 0.00
0.00 0.00 0.00 0.00 0.00 0.00 0.00 0.00 0.00 0.00 0.00 0.00 0.00 0.00 0.00 0.00 0.00 0.00 0.00 0.00 0.00 0.00 0.00 0.00 0.00 0.00 0.00 0.00 0.01 0.01 0.00 0.00 0.00 0.00 0.00 0.00 0.00 0.00 0.00 0.00 0.00 0.00 0.00
0.00 0.00 0.00 0.00 0.00 0.00 0.00 0.00 0.00 0.00 0.00 0.00 0.00 0.00 0.00 0.00 0.00 0.00 0.00 0.00 0.00 0.00 0.00 0.00 0.00 0.00 0.00 0.00 0.01 0.01 0.00 0.00 0.00 0.00 0.00 0.00 0.00 0.00 0.00 0.00 0.00 0.00 0.00
0.00 0.00 0.00 0.00 0.00 0.00 0.00 0.00 0.00 0.00 0.00 0.00 0.00 0.00 0.00 0.00 0.00 0.00 0.00 0.00 0.00 0.00 0.00 0.00 0.00 0.00 0.00 0.00 0.01 0.01 0.01 0.00 0.00 0.00 0.00 0.00 0.00 0.00 0.00 0.00 0.00 0.00 0.00
0.00 0.00 0.00 0.00 0.00 0.00 0.00 0.00 0.00 0.00 0.00 0.00 0.00 0.00 0.00 0.00 0.00 0.00 0.00 0.00 0.00 0.01 0.00 0.00 0.00 0.00 0.00 0.00 0.00 0.00 0.00 0.00 0.00 0.00 0.00 0.00 0.00 0.00 0.00 0.00 0.00 0.00 0.00
0.00 0.00 0.00 0.00 0.00 0.00 0.00 0.00 0.00 0.00 0.00 0.00 0.00 0.00 0.00 0.00 0.00 0.00 0.00 0.00 0.00 0.00 0.00 0.00 0.00 0.00 0.00 0.00 0.00 0.00 0.00 0.00 0.00 0.00 0.00 0.00 0.00 0.00 0.00 0.00 0.00 0.00 0.00
0.00 0.00 0.00 0.00 0.00 0.00 0.00 0.00 0.00 0.00 0.00 0.00 0.00 0.00 0.00 0.00 0.00 0.00 0.00 0.00 0.01 0.01 0.00 0.00 0.00 0.00 0.00 0.00 0.00 0.00 0.00 0.00 0.00 0.00 0.00 0.00 0.00 0.00 0.00 0.00 0.00 0.00 0.00
0.00 0.00 0.00 0.00 0.00 0.00 0.00 0.00 0.00 0.00 0.00 0.00 0.00 0.00 0.00 0.00 0.00 0.00 0.00 0.00 0.00 0.00 0.00 0.00 0.00 0.00 0.00 0.00 0.00 0.00 0.00 0.00 0.00 0.00 0.00 0.00 0.00 0.00 0.00 0.00 0.00 0.00 0.00
0.00 0.00 0.00 0.00 0.00 0.00 0.00 0.00 0.00 0.00 0.00 0.00 0.00 0.00 0.00 0.00 0.00 0.01 0.00 0.00 0.00 0.00 0.00 0.00 0.00 0.00 0.00 0.00 0.00 0.00 0.00 0.00 0.00 0.00 0.00 0.00 0.00 0.00 0.00 0.00 0.00 0.00 0.00
0.00 0.00 0.00 0.00 0.00 0.00 0.00 0.00 0.00 0.00 0.00 0.00 0.00 0.00 0.00 0.00 0.00 0.00 0.00 0.00 0.00 0.00 0.00 0.00 0.00 0.00 0.00 0.00 0.00 0.00 0.00 0.00 0.00 0.00 0.00 0.00 0.00 0.00 0.00 0.00 0.00 0.00 0.00
0.00 0.00 0.00 0.00 0.00 0.00 0.00 0.00 0.00 0.00 0.00 0.00 0.00 0.00 0.00 0.00 0.00 0.00 0.00 0.00 0.00 0.00 0.00 0.00 0.00 0.00 0.00 0.00 0.00 0.00 0.00 0.00 0.00 0.00 0.00 0.00 0.00 0.00 0.00 0.00 0.00 0.00 0.00
0.00 0.00 0.00 0.00 0.00 0.00 0.00 0.00 0.00 0.00 0.00 0.00 0.00 0.00 0.00 0.00 0.00 0.00 0.00 0.00 0.00 0.00 0.00 0.00 0.00 0.00 0.00 0.00 0.00 0.00 0.00 0.00 0.00 0.00 0.00 0.00 0.00 0.00 0.00 0.00 0.00 0.00 0.00
0.00 0.00 0.00 0.00 0.00 0.00 0.00 0.00 0.00 0.00 0.00 0.00 0.00 0.00 0.00 0.00 0.00 0.00 0.00 0.00 0.00 0.00 0.00 0.00 0.00 0.00 0.00 0.00 0.00 0.00 0.00 0.00 0.00 0.00 0.00 0.00 0.00 0.00 0.00 0.00 0.00 0.00 0.00
0.00 0.00 0.00 0.00 0.00 0.00 0.00 0.00 0.00 0.00 0.00 0.00 0.00 0.00 0.00 0.00 0.00 0.00 0.00 0.00 0.00 0.00 0.00 0.00 0.00 0.00 0.00 0.00 0.00 0.00 0.00 0.00 0.00 0.00 0.00 0.00 0.00 0.00 0.00 0.00 0.00 0.00 0.00
0.00 0.00 0.00 0.00 0.00 0.00 0.00 0.00 0.00 0.00 0.00 0.00 0.00 0.00 0.00 0.00 0.00 0.00 0.00 0.00 0.00 0.00 0.00 0.00 0.00 0.00 0.00 0.00 0.00 0.00 0.00 0.00 0.00 0.00 0.00 0.00 0.00 0.00 0.00 0.00 0.00 0.00 0.00
0.00 0.00 0.00 0.00 0.00 0.00 0.00 0.00 0.00 0.00 0.00 0.00 0.00 0.00 0.00 0.00 0.00 0.00 0.00 0.00 0.00 0.00 0.00 0.00 0.00 0.00 0.00 0.00 0.00 0.00 0.00 0.00 0.00 0.00 0.00 0.00 0.00 0.00 0.00 0.00 0.00 0.00 0.00
0.00 0.00 0.00 0.00 0.00 0.00 0.00 0.00 0.00 0.00 0.00 0.00 0.00 0.00 0.00 0.00 0.00 0.00 0.00 0.00 0.00 0.00 0.00 0.00 0.00 0.00 0.00 0.00 0.00 0.00 0.00 0.00 0.00 0.00 0.00 0.00 0.00 0.00 0.00 0.00 0.00 0.00 0.00
0.00 0.00 0.00 0.00 0.00 0.00 0.00 0.00 0.00 0.00 0.00 0.00 0.00 0.00 0.00 0.00 0.00 0.00 0.00 0.00 0.00 0.00 0.00 0.00 0.00 0.00 0.00 0.00 0.00 0.00 0.00 0.00 0.00 0.00 0.00 0.00 0.00 0.00 0.00 0.00 0.00 0.00 0.00
0.00 0.00 0.00 0.00 0.00 0.00 0.00 0.00 0.00 0.00 0.00 0.00 0.00 0.00 0.00 0.00 0.00 0.00 0.00 0.00 0.00 0.00 0.00 0.00 0.00 0.00 0.00 0.00 0.00 0.00 0.00 0.00 0.00 0.00 0.00 0.00 0.00 0.00 0.00 0.00 0.00 0.00 0.00
0.00 0.00 0.00 0.00 0.00 0.00 0.00 0.00 0.00 0.00 0.00 0.00 0.00 0.00 0.00 0.00 0.00 0.00 0.00 0.00 0.00 0.00 0.00 0.00 0.00 0.00 0.00 0.00 0.00 0.00 0.00 0.00 0.00 0.00 0.00 0.00 0.00 0.00 0.00 0.00 0.00 0.00 0.00
MSLP
1024.44 1024.49 1024.51 1024.58 1024.49 1024.39 1024.44 1024.35 1024.06 1023.59 1023.32 1023.02 1022.62 1022.28 1021.95 1021.49 1020.94 1020.60 1020.22 1019.73 1019.36 1018.95 1018.50 1018.10 1017.63 1017.43 1017.27 1017.14 1016.96 1016.80 1016.74 1016.55 1016.08 1015.87 1015.89 1015.73 1015.85 1015.91 1015.74 1015.71 1015.64 1015.46 1015.26
1025.22 1025.18 1025.16 1025.11 1025.03 1025.09 1025.07 1024.97 1024.65 1024.38 1023.97 1023.54 1023.08 1022.76 1022.37 1021.83 1021.22 1020.72 1020.17 1019.75 1019.12 1018.85 1018.76 1018.35 1018.12 1017.22 1016.30 1015.94 1015.90 1015.79 1015.68 1015.57 1015.64 1015.15 1015.20 1015.49 1015.43 1015.59 1015.56 1015.45 1015.39 1015.10 1014.98
1025.72 1025.78 1025.82 1025.85 1025.83 1025.80 1025.67 1025.48 1025.11 1024.79 1024.42 1023.97 1023.57 1023.12 1022.60 1022.06 1021.46 1020.91 1020.22 1019.75 1019.40 1018.89 1018.30 1018.07 1017.65 1017.73 1016.81 1015.88 1014.93 1014.56 1014.59 1014.55 1014.69 1014.82 1014.54 1014.64 1014.80 1015.07 1015.09 1015.03 1014.87 1014.58 1014.59
1026.32 1026.39 1026.48 1026.41 1026.29 1026.15 1025.92 1025.64 1025.34 1024.90 1024.53 1024.12 1023.68 1023.14 1022.63 1022.10 1021.50 1020.79 1020.30 1019.68 1019.23 1018.77 1018.32 1017.79 1017.30 1016.94 1016.26 1015.95 1015.46 1014.44 1013.54 1013.42 1013.77 1014.00 1014.14 1014.05 1014.14 1014.34 1014.65 1014.67 1014.48 1014.50 1014.22
1026.75 1026.85 1026.86 1026.67 1026.48 1026.24 1025.95 1025.67 1025.35 1025.05 1024.67 1024.19 1023.64 1023.17 1022.77 1022.21 1021.55 1021.01 1020.50 1020.05 1019.46 1018.63 1017.99 1017.42 1016.79 1016.20 1015.72 1015.12 1014.67 1014.34 1013.79 1012.76 1012.68 1012.98 1013.18 1013.33 1013.35 1013.56 1013.83 1013.85 1013.82 1013.80 1013.53
1026.95 1027.03 1026.85 1026.73 1026.57 1026.32 1026.05 1025.72 1025.39 1025.05 1024.66 1024.09 1023.60 1023.13 1022.48 1021.99 1021.62 1021.16 1020.72 1019.96 1019.26 1018.50 1017.56 1016.76 1016.15 1015.50 1014.94 1014.50 1013.96 1013.43 1013.00 1012.74 1011.83 1011.76 1011.95 1012.13 1012.41 1012.74 1012.95 1013.16 1013.29 1013.32 1013.02
1027.02 1026.95 1026.86 1026.78 1026.66 1026.42 1026.10 1025.78 1025.41 1025.02 1024.62 1024.27 1023.57 1022.90 1022.42 1022.04 1021.48 1021.04 1020.47 1019.74 1018.95 1018.24 1017.43 1016.57 1015.75 1015.06 1014.76 1014.25 1013.45 1012.52 1011.67 1011.13 1011.07 1010.64 1010.44 1010.74 1011.38 1011.71 1012.25 1012.46 1012.68 1012.70 1012.34
1027.13 1027.00 1026.91 1026.87 1026.70 1026.46 1026.23 1025.83 1025.48 1025.23 1024.78 1024.10 1023.53 1023.08 1022.51 1021.99 1021.45 1020.83 1020.11 1019.47 1018.68 1018.00 1017.16 1016.30 1015.44 1014.56 1014.17 1013.77 1012.98 1011.97 1010.76 1009.92 1009.67 1009.62 1009.30 1009.36 1009.92 1010.45 1010.87 1011.40 1011.76 1011.75 1011.50
1027.19 1027.17 1027.08 1026.97 1026.79 1026.59 1026.30 1026.10 1025.81 1025.26 1024.71 1024.20 1023.71 1023.25 1022.67 1022.00 1021.36 1020.74 1019.94 1019.00 1018.22 1017.34 1016.57 1015.72 1014.78 1013.97 1013.50 1012.93 1012.34 1011.42 1010.17 1008.85 1008.54 1008.34 1008.42 1008.87 1009.03 1009.43 1010.05 1010.92 1011.14 1011.40 1010.58
1027.36 1027.35 1027.26 1027.11 1026.93 1026.70 1026.57 1026.27 1025.92 1025.47 1024.82 1024.46 1023.88 1023.43 1022.79 1022.03 1021.39 1020.62 1019.79 1018.78 1017.79 1016.82 1015.91 1014.96 1014.27 1013.43 1012.49 1011.90 1011.49 1010.75 1009.54 1007.99 1007.81 1007.66 1007.64 1008.14 1008.45 1008.78 1009.30 1010.00 1010.41 1010.35 1010.23
1027.47 1027.48 1027.48 1027.26 1027.06 1026.80 1026.73 1026.41 1026.01 1025.44 1025.03 1024.50 1023.91 1023.17 1022.58 1022.04 1021.11 1020.40 1019.57 1018.50 1017.64 1016.39 1015.23 1013.91 1012.79 1011.99 1011.16 1010.31 1009.80 1009.28 1008.32 1007.70 1006.79 1006.72 1006.99 1007.45 1007.87 1008.17 1008.54 1009.11 1009.36 1009.54 1009.36
1027.65 1027.73 1027.64 1027.37 1027.24 1027.08 1026.82 1026.45 1026.08 1025.65 1025.11 1024.45 1023.59 1022.71 1022.30 1021.68 1021.01 1020.20 1019.15 1018.18 1017.13 1016.00 1014.52 1013.02 1011.50 1010.16 1009.14 1008.13 1007.46 1006.73 1006.48 1006.22 1005.47 1005.71 1006.20 1006.84 1007.30 1007.64 1007.70 1008.08 1008.21 1008.30 1008.12
1027.79 1028.00 1027.84 1027.65 1027.48 1027.27 1026.91 1026.54 1026.14 1025.71 1025.13 1024.37 1023.62 1022.74 1021.97 1021.31 1020.65 1019.81 1018.76 1017.58 1016.44 1015.18 1013.73 1011.79 1009.83 1007.99 1006.69 1005.73 1004.79 1004.29 1004.38 1004.53 1004.72 1005.26 1005.91 1006.34 1006.58 1006.58 1007.09 1007.34 1007.43 1007.43 1007.35
1028.12 1028.28 1028.06 1027.84 1027.61 1027.39 1027.13 1026.74 1026.30 1025.73 1025.04 1024.35 1023.58 1022.85 1022.08 1021.29 1020.45 1019.39 1018.19 1016.98 1015.63 1014.07 1012.31 1009.71 1007.46 1005.91 1004.88 1003.45 1002.82 1002.77 1003.32 1004.05 1004.63 1005.18 1005.50 1005.73 1005.79 1006.26 1006.53 1006.60 1006.67 1006.67 1006.44
1028.39 1028.50 1028.28 1027.97 1027.73 1027.45 1027.09 1026.67 1026.21 1025.79 1025.21 1024.38 1023.92 1023.26 1022.31 1021.12 1020.34 1019.21 1018.09 1016.72 1015.32 1013.68 1011.39 1008.83 1006.12 1004.47 1003.70 1003.46 1003.29 1003.43 1003.78 1004.25 1004.59 1004.87 1005.12 1005.32 1005.68 1005.90 1005.95 1005.95 1005.97 1005.82 1005.53
1028.71 1028.67 1028.44 1028.09 1027.93 1027.44 1026.82 1026.22 1026.03 1025.36 1024.75 1024.35 1023.84 1023.17 1022.18 1021.45 1020.25 1019.11 1017.92 1016.63 1015.07 1013.53 1011.21 1009.37 1007.03 1004.71 1003.92 1003.79 1003.74 1003.89 1004.08 1004.30 1004.53 1004.76 1004.99 1005.32 1005.52 1005.58 1005.59 1005.51 1005.38 1005.10 1004.78
1028.83 1028.66 1028.43 1028.28 1028.02 1027.48 1026.83 1026.06 1024.71 1024.42 1024.53 1024.09 1023.45 1022.67 1022.00 1021.09 1020.04 1019.02 1017.82 1016.48 1015.36 1013.87 1012.40 1010.32 1008.65 1006.95 1005.60 1004.25 1003.91 1004.11 1004.54 1004.72 1004.84 1005.06 1005.29 1005.44 1005.47 1005.44 1005.42 1005.20 1004.96 1004.66 1004.16
1028.77 1028.59 1028.49 1028.31 1028.04 1027.45 1027.01 1026.39 1025.69 1024.76 1023.59 1022.98 1022.90 1022.41 1021.74 1020.94 1020.07 1019.05 1018.03 1016.81 1015.47 1014.16 1013.42 1012.04 1010.54 1009.17 1007.84 1006.58 1005.96 1005.63 1005.75 1005.82 1005.88 1006.02 1005.84 1005.82 1005.81 1005.72 1005.47 1005.21 1004.84 1004.44 1003.86
1028.77 1028.61 1028.33 1028.05 1027.65 1027.20 1026.80 1026.36 1025.82 1025.19 1024.49 1023.57 1022.48 1021.91 1021.51 1020.87 1020.17 1019.42 1018.57 1017.89 1016.93 1015.77 1014.58 1013.36 1011.98 1010.84 1009.68 1008.71 1007.89 1007.40 1007.15 1007.10 1007.06 1006.99 1006.94 1006.80 1006.53 1006.13 1005.77 1005.41 1004.91 1004.33 1003.68
1028.76 1028.53 1028.24 1027.85 1027.42 1026.99 1026.67 1026.23 1025.78 1025.22 1024.55 1023.76 1022.93 1022.18 1021.29 1020.63 1019.94 1019.38 1018.93 1018.39 1017.67 1016.79 1015.68 1014.63 1013.48 1012.14 1011.09 1010.30 1009.55 1008.61 1008.16 1007.96 1007.83 1007.81 1007.73 1007.47 1007.16 1006.88 1006.46 1005.81 1005.10 1004.41 1003.60
1028.62 1028.42 1028.08 1027.67 1027.26 1026.95 1026.59 1026.15 1025.73 1025.26 1024.57 1023.81 1023.08 1022.40 1021.86 1021.22 1020.48 1019.85 1019.23 1018.60 1018.07 1017.35 1016.40 1015.47 1014.53 1013.47 1012.35 1011.40 1010.67 1009.95 1009.25 1008.78 1008.70 1008.68 1008.43 1008.11 1007.79 1007.44 1007.00 1006.30 1005.54 1004.68 1003.82
1028.49 1028.28 1027.96 1027.61 1027.19 1026.99 1026.59 1026.04 1025.72 1025.25 1024.57 1023.75 1022.93 1022.21 1021.69 1021.21 1020.61 1019.96 1019.29 1018.72 1018.14 1017.48 1016.80 1015.99 1015.19 1014.39 1013.56 1012.72 1011.65 1010.85 1010.13 1009.85 1009.49 1009.32 1009.06 1008.74 1008.35 1007.92 1007.39 1006.86 1006.07 1005.10 1004.09
1028.29 1028.12 1027.76 1027.50 1027.31 1026.95 1026.57 1026.18 1025.77 1025.19 1024.52 1023.76 1022.96 1022.18 1021.57 1021.13 1020.59 1019.95 1019.25 1018.57 1017.92 1017.31 1016.65 1016.13 1015.48 1014.72 1014.13 1013.44 1012.68 1011.87 1011.01 1010.42 1010.07 1009.84 1009.48 1009.17 1008.74 1008.26 1007.88 1007.46 1006.72 1005.66 1004.60
1028.11 1027.95 1027.73 1027.59 1027.33 1027.07 1026.75 1026.35 1025.82 1025.18 1024.54 1023.76 1023.04 1022.25 1021.61 1021.01 1020.39 1019.73 1019.08 1018.41 1017.73 1017.08 1016.46 1015.96 1015.38 1014.93 1014.34 1013.71 1013.06 1012.39 1011.60 1010.80 1010.46 1010.08 1009.81 1009.48 1009.15 1008.71 1008.27 1007.78 1007.11 1006.19 1005.24
1027.94 1027.79 1027.70 1027.65 1027.62 1027.31 1026.97 1026.49 1025.94 1025.27 1024.52 1023.78 1023.06 1022.27 1021.56 1020.82 1020.07 1019.33 1018.65 1018.01 1017.36 1016.70 1016.03 1015.46 1014.95 1014.42 1013.95 1013.56 1013.12 1012.59 1012.21 1011.65 1010.96 1010.47 1010.07 1009.82 1009.50 1008.97 1008.47 1008.00 1007.49 1006.74 1005.85
1027.86 1027.61 1027.47 1027.37 1027.30 1027.12 1026.97 1026.55 1025.98 1025.26 1024.50 1023.74 1023.01 1022.36 1021.61 1020.77 1019.84 1018.98 1018.18 1017.45 1016.80 1016.15 1015.57 1014.90 1014.32 1013.85 1013.45 1013.08 1012.69 1012.47 1012.23 1011.85 1011.36 1010.80 1010.45 1010.17 1009.87 1009.37 1008.80 1008.28 1007.83 1007.17 1006.40
Thickness
5512 5505 5499 5493 5487 5482 5475 5470 5465 5461 5456 5451 5447 5442 5437 5434 5430 5426 5423 5421 5420 5420 5422 5422 5424 5422 5422 5423 5425 5428 5430 5433 5440 5450 5453 5452 5453 5455 5461 5468 5474 5480 5485
5497 5491 5485 5480 5474 5467 5460 5454 5448 5442 5436 5430 5424 5418 5410 5404 5399 5395 5394 5392 5392 5390 5388 5392 5394 5399 5405 5407 5406 5410 5413 5416 5417 5427 5435 5435 5438 5438 5443 5447 5453 5462 5467
5485 5478 5472 5465 5458 5451 5445 5437 5430 5423 5415 5406 5397 5388 5381 5374 5368 5363 5360 5359 5358 5358 5361 5361 5364 5363 5372 5382 5389 5393 5395 5397 5398 5400 5411 5416 5420 5422 5426 5430 5436 5443 5449
5471 5464 5457 5450 5443 5436 5427 5419 5411 5403 5394 5384 5373 5363 5353 5345 5338 5334 5330 5329 5329 5331 5331 5333 5336 5337 5344 5349 5356 5368 5376 5378 5379 5381 5385 5393 5397 5403 5404 5410 5416 5420 5428
5459 5451 5444 5436 5429 5421 5413 5404 5394 5382 5370 5357 5347 5335 5325 5317 5312 5306 5302 5299 5300 5304 5307 5308 5313 5317 5321 5325 5330 5337 5345 5355 5360 5363 5367 5372 5378 5382 5385 5391 5397 5402 5409
5448 5440 5433 5424 5415 5406 5397 5386 5375 5361 5347 5334 5321 5311 5306 5298 5289 5282 5275 5276 5277 5279 5286 5289 5290 5296 5301 5305 5310 5315 5319 5326 5342 5346 5352 5356 5360 5360 5363 5368 5374 5381 5391
5438 5430 5421 5411 5401 5391 5380 5367 5353 5337 5323 5309 5301 5295 5286 5277 5269 5261 5256 5254 5254 5256 5259 5264 5270 5274 5274 5279 5287 5296 5306 5312 5318 5332 5337 5344 5341 5343 5344 5348 5351 5359 5372
5427 5418 5407 5397 5386 5373 5360 5347 5330 5314 5301 5292 5284 5275 5267 5258 5247 5238 5232 5228 5227 5227 5229 5234 5240 5250 5252 5253 5261 5273 5288 5301 5307 5313 5322 5330 5329 5329 5330 5333 5337 5343 5355
5414 5403 5393 5382 5369 5355 5342 5324 5307 5295 5285 5275 5266 5255 5243 5234 5222 5212 5204 5202 5200 5202 5204 5209 5216 5224 5229 5232 5237 5249 5265 5286 5294 5300 5305 5309 5313 5315 5316 5315 5321 5325 5342
5401 5389 5378 5365 5351 5337 5320 5303 5288 5274 5266 5256 5248 5233 5219 5208 5198 5189 5181 5175 5175 5177 5182 5188 5193 5198 5209 5217 5220 5229 5244 5270 5276 5282 5288 5291 5298 5302 5303 5304 5307 5315 5324
5388 5376 5362 5348 5335 5319 5300 5284 5270 5260 5250 5241 5231 5218 5204 5190 5182 5169 5161 5154 5148 5153 5160 5171 5180 5186 5195 5206 5211 5219 5236 5248 5262 5268 5272 5276 5281 5287 5291 5293 5297 5304 5312
5375 5362 5347 5333 5319 5302 5285 5269 5254 5243 5234 5225 5218 5208 5193 5180 5166 5154 5145 5136 5131 5132 5143 5156 5169 5181 5191 5203 5211 5222 5232 5241 5254 5259 5261 5264 5268 5275 5283 5287 5292 5297 5305
5363 5348 5333 5319 5303 5286 5270 5254 5241 5228 5219 5212 5202 5193 5183 5170 5155 5142 5131 5124 5122 5125 5135 5152 5169 5184 5196 5205 5218 5228 5235 5241 5245 5248 5250 5256 5263 5272 5277 5282 5286 5290 5297
5350 5334 5321 5307 5290 5272 5255 5239 5226 5217 5208 5198 5189 5179 5168 5156 5143 5132 5123 5118 5120 5129 5142 5162 5180 5193 5204 5216 5225 5231 5233 5234 5237 5241 5247 5254 5263 5267 5272 5277 5281 5285 5294
5337 5323 5310 5296 5280 5263 5245 5230 5218 5203 5190 5181 5170 5161 5151 5146 5134 5122 5114 5115 5121 5132 5148 5168 5192 5205 5214 5217 5222 5225 5227 5230 5234 5240 5246 5253 5257 5262 5267 5272 5277 5284 5293
5326 5312 5299 5286 5270 5255 5243 5231 5212 5201 5189 5177 5164 5154 5149 5136 5129 5120 5114 5116 5125 5135 5152 5167 5186 5207 5213 5215 5219 5222 5225 5228 5233 5238 5244 5248 5253 5258 5262 5268 5275 5283 5291
5315 5304 5290 5275 5261 5247 5235 5227 5227 5212 5186 5176 5166 5158 5148 5140 5132 5122 5116 5118 5124 5134 5145 5161 5174 5187 5198 5212 5217 5219 5219 5223 5227 5232 5236 5242 5248 5253 5258 5265 5271 5279 5289
5308 5295 5280 5265 5250 5237 5223 5214 5206 5201 5199 5188 5171 5160 5149 5140 5131 5123 5116 5117 5123 5133 5139 5149 5161 5170 5182 5192 5199 5204 5207 5212 5217 5221 5229 5237 5241 5246 5253 5259 5267 5275 5284
5300 5286 5274 5259 5245 5231 5218 5207 5198 5189 5181 5175 5173 5165 5153 5141 5129 5120 5114 5109 5111 5120 5130 5139 5151 5158 5167 5176 5183 5188 5193 5197 5202 5208 5214 5221 5229 5239 5246 5253 5262 5270 5279
5291 5279 5266 5254 5241 5227 5214 5203 5193 5184 5175 5168 5162 5157 5153 5145 5136 5124 5113 5106 5105 5110 5120 5128 5136 5147 5156 5163 5170 5179 5185 5190 5195 5200 5206 5213 5220 5227 5235 5245 5255 5264 5275
5285 5273 5260 5248 5235 5222 5209 5198 5188 5178 5171 5164 5156 5150 5142 5136 5130 5122 5114 5107 5101 5102 5110 5119 5127 5135 5143 5152 5159 5166 5174 5181 5185 5191 5197 5204 5211 5218 5225 5236 5247 5257 5268
5279 5267 5255 5243 5230 5216 5204 5193 5182 5173 5167 5162 5156 5150 5143 5135 5129 5122 5115 5108 5102 5100 5101 5109 5116 5124 5131 5138 5148 5157 5165 5170 5176 5182 5188 5195 5203 5210 5218 5226 5237 5249 5261
5273 5261 5250 5237 5223 5210 5198 5186 5177 5169 5163 5158 5153 5148 5143 5136 5129 5122 5116 5111 5106 5102 5099 5101 5107 5115 5121 5128 5136 5145 5154 5161 5167 5174 5182 5188 5196 5204 5210 5217 5226 5238 5251
5268 5256 5244 5231 5218 5206 5192 5181 5172 5165 5158 5154 5149 5144 5139 5135 5129 5123 5117 5113 5108 5104 5101 5098 5100 5106 5113 5120 5128 5136 5144 5153 5160 5167 5174 5182 5189 5197 5204 5211 5219 5229 5241
5262 5250 5237 5225 5212 5201 5186 5177 5167 5159 5154 5150 5145 5141 5137 5133 5130 5125 5120 5115 5111 5107 5103 5100 5098 5100 5106 5113 5120 5127 5133 5141 5150 5158 5166 5173 5182 5190 5199 5206 5212 5222 5231
5257 5246 5234 5221 5209 5195 5183 5171 5162 5155 5151 5146 5141 5136 5133 5130 5129 5126 5122 5118 5114 5110 5106 5103 5100 5098 5099 5103 5110 5118 5125 5133 5140 5149 5157 5165 5173 5182 5191 5200 5207 5215 5224